Tracking 28790 objects as of 18-Apr-2024
HD Live streaming from Space Station
objects crossing your sky now

SL-8 R/B

Track SL-8 R/B now!
10-day predictions


NORAD ID: 21231
Int'l Code: 1991-029B
Perigee: 958.3 km
Apogee: 1,012.4 km
Inclination: 83.0 °
Period: 104.7 minutes
Semi major axis: 7356 km
RCS: 8.0643 m2 (large)
Launch date: April 16, 1991
Source: Commonwealth of Independent States (former USSR) (CIS)
Launch site: PLESETSK MISSILE AND SPACE COMPLEX (PKMTR)

Note: This is a ROCKET BODY
Your satellite tracking list
Your tracking list is empty




NASA's NSSDC Master Catalog

Two Line Element Set (TLE):
1 21231U 91029B   24108.88409965  .00000192  00000-0  18109-3 0  9998
2 21231  82.9525  59.0016 0036760  93.5321 328.6889 13.75968695656839
Source of the keplerian elements: AFSPC